Time,TemperatureF,DewpointF,PressureIn,WindDirection,WindDirectionDegrees,WindSpeedMPH,WindSpeedGustMPH,Humidity,HourlyPrecipIn,Conditions,Clouds,dailyrainin,SoftwareType,DateUTC
2013-07-01 00:00:00,70.3,68.8,29.93,SSW,203,0.0,1.0,95,0.00,,,0.00,VWS V14.01,2013-07-01 04:00:00,
2013-07-01 00:01:00,70.3,68.8,29.93,SSW,203,0.0,1.0,95,0.00,,,0.00,VWS V14.01,2013-07-01 04:01:00,
2013-07-01 00:06:00,70.3,68.8,29.93,West,259,2.0,2.0,95,0.00,,,0.00,VWS V14.01,2013-07-01 04:06:00,
2013-07-01 00:11:00,70.4,68.9,29.93,West,259,0.0,2.0,95,0.00,,,0.00,VWS V14.01,2013-07-01 04:11:00,
2013-07-01 00:16:00,70.3,68.8,29.93,West,259,0.0,2.0,95,0.00,,,0.00,VWS V14.01,2013-07-01 04:16:00,
2013-07-01 00:21:00,70.3,68.8,29.93,WSW,258,0.0,2.0,95,0.00,,,0.00,VWS V14.01,2013-07-01 04:21:00,
2013-07-01 00:26:00,70.1,68.6,29.94,West,259,1.0,2.0,95,0.00,,,0.00,VWS V14.01,2013-07-01 04:26:00,
2013-07-01 00:31:00,70.1,68.9,29.94,West,259,0.0,2.0,96,0.00,,,0.00,VWS V14.01,2013-07-01 04:31:00,
2013-07-01 00:36:00,70.1,68.9,29.94,West,259,0.0,0.0,96,0.00,,,0.00,VWS V14.01,2013-07-01 04:36:00,
2013-07-01 00:41:00,70.0,68.8,29.94,West,271,0.0,2.0,96,0.00,,,0.00,VWS V14.01,2013-07-01 04:41:00,
2013-07-01 00:46:00,70.0,68.8,29.94,West,275,1.0,3.0,96,0.00,,,0.00,VWS V14.01,2013-07-01 04:46:00,
2013-07-01 00:51:00,69.9,68.7,29.94,West,268,1.0,4.0,96,0.00,,,0.00,VWS V14.01,2013-07-01 04:51:00,
2013-07-01 00:56:00,69.9,68.7,29.94,West,268,0.0,4.0,96,0.00,,,0.00,VWS V14.01,2013-07-01 04:56:00,
2013-07-01 01:01:00,69.9,69.0,29.94,West,268,0.0,4.0,97,0.00,,,0.00,VWS V14.01,2013-07-01 05:01:00,
2013-07-01 01:06:00,69.9,69.0,29.93,West,268,0.0,0.0,97,0.00,,,0.00,VWS V14.01,2013-07-01 05:06:00,
2013-07-01 01:11:00,69.8,68.9,29.94,West,268,0.0,0.0,97,0.00,,,0.00,VWS V14.01,2013-07-01 05:11:00,
2013-07-01 01:16:00,69.8,68.9,29.94,West,268,0.0,1.0,97,0.00,,,0.00,VWS V14.01,2013-07-01 05:16:00,
2013-07-01 01:21:00,69.8,68.9,29.93,West,268,0.0,1.0,97,0.00,,,0.00,VWS V14.01,2013-07-01 05:21:00,
2013-07-01 01:26:00,69.8,68.9,29.94,West,264,0.0,5.0,97,0.00,,,0.00,VWS V14.01,2013-07-01 05:26:00,
2013-07-01 01:31:00,69.9,69.0,29.94,WNW,292,0.0,5.0,97,0.00,,,0.00,VWS V14.01,2013-07-01 05:31:00,
2013-07-01 01:36:00,69.9,69.0,29.94,WNW,292,0.0,0.0,97,0.00,,,0.00,VWS V14.01,2013-07-01 05:36:00,
2013-07-01 01:41:00,69.9,69.0,29.94,WNW,292,0.0,0.0,97,0.00,,,0.00,VWS V14.01,2013-07-01 05:41:00,
2013-07-01 01:46:00,70.0,69.1,29.94,WNW,292,0.0,0.0,97,0.00,,,0.00,VWS V14.01,2013-07-01 05:46:00,
2013-07-01 01:51:00,69.9,69.0,29.94,WNW,292,0.0,1.0,97,0.00,,,0.00,VWS V14.01,2013-07-01 05:51:00,
2013-07-01 01:56:00,69.9,69.0,29.94,WNW,292,0.0,2.0,97,0.00,,,0.00,VWS V14.01,2013-07-01 05:56:00,
2013-07-01 02:01:00,70.0,68.8,29.94,WNW,292,3.0,3.0,96,0.00,,,0.00,VWS V14.01,2013-07-01 06:01:00,
2013-07-01 02:06:00,70.0,68.8,29.94,WNW,292,2.0,3.0,96,0.00,,,0.00,VWS V14.01,2013-07-01 06:06:00,
2013-07-01 02:11:00,70.0,69.1,29.94,WNW,292,0.0,3.0,97,0.00,,,0.00,VWS V14.01,2013-07-01 06:11:00,
2013-07-01 02:16:00,70.0,69.1,29.94,WNW,292,0.0,3.0,97,0.00,,,0.00,VWS V14.01,2013-07-01 06:16:00,
2013-07-01 02:21:00,69.9,69.0,29.94,WNW,292,0.0,3.0,97,0.00,,,0.00,VWS V14.01,2013-07-01 06:21:00,
2013-07-01 02:26:00,69.9,69.0,29.94,WNW,292,0.0,3.0,97,0.00,,,0.00,VWS V14.01,2013-07-01 06:26:00,
2013-07-01 02:31:00,69.9,69.0,29.94,WNW,292,0.0,3.0,97,0.00,,,0.00,VWS V14.01,2013-07-01 06:31:00,
2013-07-01 02:36:00,69.9,69.0,29.94,WNW,292,0.0,3.0,97,0.00,,,0.00,VWS V14.01,2013-07-01 06:36:00,
2013-07-01 02:41:00,69.9,69.0,29.94,WNW,292,0.0,3.0,97,0.00,,,0.00,VWS V14.01,2013-07-01 06:41:00,
2013-07-01 02:46:00,70.0,69.1,29.94,WNW,292,0.0,3.0,97,0.00,,,0.00,VWS V14.01,2013-07-01 06:46:00,
2013-07-01 02:51:00,69.9,69.0,29.94,WNW,292,0.0,3.0,97,0.00,,,0.00,VWS V14.01,2013-07-01 06:51:00,
2013-07-01 02:56:00,70.0,69.1,29.94,WNW,292,0.0,3.0,97,0.00,,,0.00,VWS V14.01,2013-07-01 06:56:00,
2013-07-01 03:01:00,69.9,69.0,29.94,WNW,292,0.0,3.0,97,0.00,,,0.00,VWS V14.01,2013-07-01 07:01:00,
2013-07-01 03:06:00,70.0,69.1,29.94,WNW,292,0.0,0.0,97,0.00,,,0.00,VWS V14.01,2013-07-01 07:06:00,
2013-07-01 03:11:00,70.0,69.1,29.94,WNW,292,0.0,1.0,97,0.00,,,0.00,VWS V14.01,2013-07-01 07:11:00,
2013-07-01 03:16:00,70.1,69.2,29.94,WNW,292,0.0,1.0,97,0.00,,,0.00,VWS V14.01,2013-07-01 07:16:00,
2013-07-01 03:21:00,70.1,69.2,29.94,WNW,292,0.0,1.0,97,0.00,,,0.00,VWS V14.01,2013-07-01 07:21:00,
2013-07-01 03:26:00,70.1,69.2,29.94,WNW,292,0.0,1.0,97,0.00,,,0.00,VWS V14.01,2013-07-01 07:26:00,
2013-07-01 03:31:00,70.1,69.2,29.94,WNW,292,0.0,2.0,97,0.00,,,0.00,VWS V14.01,2013-07-01 07:31:00,
2013-07-01 03:36:00,70.1,68.9,29.94,WNW,292,0.0,0.0,96,0.00,,,0.00,VWS V14.01,2013-07-01 07:36:00,
2013-07-01 03:41:00,70.1,68.9,29.94,WNW,292,0.0,1.0,96,0.00,,,0.00,VWS V14.01,2013-07-01 07:41:00,
2013-07-01 03:46:00,70.1,68.9,29.94,WNW,292,0.0,2.0,96,0.00,,,0.00,VWS V14.01,2013-07-01 07:46:00,
2013-07-01 03:51:00,70.1,68.9,29.94,WNW,292,0.0,2.0,96,0.00,,,0.00,VWS V14.01,2013-07-01 07:51:00,
2013-07-01 03:56:00,70.1,68.9,29.94,WNW,292,0.0,2.0,96,0.00,,,0.00,VWS V14.01,2013-07-01 07:56:00,
2013-07-01 04:01:00,70.1,69.2,29.94,WNW,292,0.0,2.0,97,0.00,,,0.00,VWS V14.01,2013-07-01 08:01:00,
2013-07-01 04:06:00,70.1,69.2,29.94,WNW,292,0.0,0.0,97,0.00,,,0.00,VWS V14.01,2013-07-01 08:06:00,
2013-07-01 04:11:00,70.0,69.1,29.94,WNW,292,0.0,0.0,97,0.00,,,0.00,VWS V14.01,2013-07-01 08:11:00,
2013-07-01 04:16:00,70.1,69.2,29.94,WNW,292,0.0,0.0,97,0.00,,,0.00,VWS V14.01,2013-07-01 08:16:00,
2013-07-01 04:21:00,70.0,69.1,29.94,WNW,292,0.0,0.0,97,0.00,,,0.00,VWS V14.01,2013-07-01 08:21:00,
2013-07-01 04:26:00,70.0,69.1,29.94,WNW,292,0.0,0.0,97,0.00,,,0.00,VWS V14.01,2013-07-01 08:26:00,
2013-07-01 04:31:00,70.1,69.2,29.94,WNW,292,0.0,0.0,97,0.00,,,0.00,VWS V14.01,2013-07-01 08:31:00,
2013-07-01 04:36:00,70.1,69.2,29.95,WNW,292,0.0,0.0,97,0.00,,,0.00,VWS V14.01,2013-07-01 08:36:00,
2013-07-01 04:41:00,70.1,69.2,29.95,WNW,292,0.0,0.0,97,0.00,,,0.00,VWS V14.01,2013-07-01 08:41:00,
2013-07-01 04:46:00,70.0,69.1,29.95,WNW,292,0.0,0.0,97,0.00,,,0.00,VWS V14.01,2013-07-01 08:46:00,
2013-07-01 04:51:00,70.0,69.1,29.95,WNW,292,0.0,0.0,97,0.00,,,0.00,VWS V14.01,2013-07-01 08:51:00,
2013-07-01 04:56:00,70.0,69.1,29.95,WNW,292,0.0,0.0,97,0.00,,,0.00,VWS V14.01,2013-07-01 08:56:00,
2013-07-01 05:01:00,70.0,69.1,29.95,WNW,292,0.0,0.0,97,0.00,,,0.00,VWS V14.01,2013-07-01 09:01:00,
2013-07-01 05:06:00,70.1,69.2,29.95,WNW,292,0.0,0.0,97,0.00,,,0.00,VWS V14.01,2013-07-01 09:06:00,
2013-07-01 05:11:00,70.1,69.2,29.95,WNW,292,0.0,0.0,97,0.00,,,0.00,VWS V14.01,2013-07-01 09:11:00,
2013-07-01 05:16:00,70.0,69.1,29.96,WNW,292,0.0,0.0,97,0.00,,,0.00,VWS V14.01,2013-07-01 09:16:00,
2013-07-01 05:21:00,70.1,69.2,29.96,WNW,292,0.0,0.0,97,0.00,,,0.00,VWS V14.01,2013-07-01 09:21:00,
2013-07-01 05:26:00,70.1,69.2,29.96,WNW,292,0.0,0.0,97,0.00,,,0.00,VWS V14.01,2013-07-01 09:26:00,
2013-07-01 05:31:00,70.1,69.2,29.97,WNW,292,0.0,0.0,97,0.00,,,0.00,VWS V14.01,2013-07-01 09:31:00,
2013-07-01 05:36:00,70.1,69.2,29.96,WNW,292,0.0,0.0,97,0.00,,,0.00,VWS V14.01,2013-07-01 09:36:00,
2013-07-01 05:41:00,70.1,69.2,29.96,WNW,292,0.0,0.0,97,0.00,,,0.00,VWS V14.01,2013-07-01 09:41:00,
2013-07-01 05:46:00,70.1,69.2,29.97,WNW,292,0.0,0.0,97,0.00,,,0.00,VWS V14.01,2013-07-01 09:46:00,
2013-07-01 05:51:00,70.2,69.3,29.97,WNW,292,0.0,0.0,97,0.00,,,0.00,VWS V14.01,2013-07-01 09:51:00,
2013-07-01 05:56:00,70.3,69.4,29.97,WNW,292,0.0,0.0,97,0.00,,,0.00,VWS V14.01,2013-07-01 09:56:00,
2013-07-01 06:01:00,70.3,69.4,29.97,North,360,0.0,1.0,97,0.00,,,0.00,VWS V14.01,2013-07-01 10:01:00,
2013-07-01 06:06:00,70.3,69.4,29.97,North,360,0.0,1.0,97,0.00,,,0.00,VWS V14.01,2013-07-01 10:06:00,
2013-07-01 06:11:00,70.4,69.5,29.97,North,360,0.0,1.0,97,0.00,,,0.00,VWS V14.01,2013-07-01 10:11:00,
2013-07-01 06:16:00,70.5,69.6,29.97,North,360,0.0,1.0,97,0.00,,,0.00,VWS V14.01,2013-07-01 10:16:00,
2013-07-01 06:21:00,70.6,69.7,29.97,North,360,0.0,1.0,97,0.00,,,0.00,VWS V14.01,2013-07-01 10:21:00,
2013-07-01 06:26:00,70.7,69.8,29.97,North,360,0.0,1.0,97,0.00,,,0.00,VWS V14.01,2013-07-01 10:26:00,
2013-07-01 06:31:00,70.7,69.8,29.97,North,360,0.0,1.0,97,0.00,,,0.00,VWS V14.01,2013-07-01 10:31:00,
2013-07-01 06:36:00,70.7,69.8,29.97,North,360,0.0,0.0,97,0.00,,,0.00,VWS V14.01,2013-07-01 10:36:00,
2013-07-01 06:41:00,70.8,69.9,29.97,North,360,0.0,0.0,97,0.00,,,0.00,VWS V14.01,2013-07-01 10:41:00,
2013-07-01 06:46:00,70.8,69.9,29.98,North,360,0.0,0.0,97,0.00,,,0.00,VWS V14.01,2013-07-01 10:46:00,
2013-07-01 06:51:00,70.8,69.6,29.98,North,5,0.0,0.0,96,0.00,,,0.00,VWS V14.01,2013-07-01 10:51:00,
2013-07-01 06:56:00,70.9,69.7,29.98,North,5,0.0,0.0,96,0.00,,,0.00,VWS V14.01,2013-07-01 10:56:00,
2013-07-01 07:01:00,71.0,70.1,29.98,North,9,0.0,1.0,97,0.00,,,0.00,VWS V14.01,2013-07-01 11:01:00,
2013-07-01 07:06:00,71.0,69.8,29.98,North,5,0.0,0.0,96,0.00,,,0.00,VWS V14.01,2013-07-01 11:06:00,
2013-07-01 07:11:00,71.0,69.8,29.98,North,9,0.0,0.0,96,0.00,,,0.00,VWS V14.01,2013-07-01 11:11:00,
2013-07-01 07:16:00,71.0,69.8,29.98,North,5,0.0,2.0,96,0.00,,,0.00,VWS V14.01,2013-07-01 11:16:00,
2013-07-01 07:21:00,71.0,69.8,29.98,North,5,0.0,2.0,96,0.00,,,0.00,VWS V14.01,2013-07-01 11:21:00,
2013-07-01 07:26:00,71.0,69.8,29.98,North,11,0.0,2.0,96,0.00,,,0.00,VWS V14.01,2013-07-01 11:26:00,
2013-07-01 07:31:00,71.0,69.8,29.98,North,11,0.0,2.0,96,0.00,,,0.00,VWS V14.01,2013-07-01 11:31:00,
2013-07-01 07:36:00,71.1,69.9,29.98,North,10,0.0,0.0,96,0.00,,,0.00,VWS V14.01,2013-07-01 11:36:00,
2013-07-01 07:41:00,71.1,69.9,29.98,ESE,117,0.0,3.0,96,0.00,,,0.00,VWS V14.01,2013-07-01 11:41:00,
2013-07-01 07:46:00,71.3,70.1,29.98,WSW,254,0.0,3.0,96,0.00,,,0.00,VWS V14.01,2013-07-01 11:46:00,
2013-07-01 07:51:00,71.4,69.9,29.98,SW,219,0.0,5.0,95,0.00,,,0.00,VWS V14.01,2013-07-01 11:51:00,
2013-07-01 07:56:00,71.8,70.3,29.98,SW,221,0.0,5.0,95,0.00,,,0.00,VWS V14.01,2013-07-01 11:56:00,
2013-07-01 08:01:00,72.1,70.3,29.99,WSW,242,0.0,5.0,94,0.00,,,0.00,VWS V14.01,2013-07-01 12:01:00,
2013-07-01 08:06:00,72.3,70.2,29.98,WSW,257,0.0,4.0,93,0.00,,,0.00,VWS V14.01,2013-07-01 12:06:00,
2013-07-01 08:11:00,72.3,70.2,29.99,WSW,240,0.0,4.0,93,0.00,,,0.00,VWS V14.01,2013-07-01 12:11:00,
2013-07-01 08:16:00,72.2,70.1,29.99,West,277,0.0,4.0,93,0.00,,,0.00,VWS V14.01,2013-07-01 12:16:00,
2013-07-01 08:21:00,72.3,70.2,29.99,West,277,0.0,4.0,93,0.00,,,0.00,VWS V14.01,2013-07-01 12:21:00,
2013-07-01 08:26:00,72.2,70.1,29.99,SSW,209,1.0,4.0,93,0.00,,,0.00,VWS V14.01,2013-07-01 12:26:00,
2013-07-01 08:31:00,72.2,70.4,29.99,SSW,200,0.0,4.0,94,0.00,,,0.00,VWS V14.01,2013-07-01 12:31:00,
2013-07-01 08:36:00,72.2,70.4,29.99,West,281,0.0,3.0,94,0.00,,,0.00,VWS V14.01,2013-07-01 12:36:00,
2013-07-01 08:41:00,72.2,70.1,29.99,West,263,0.0,3.0,93,0.00,,,0.00,VWS V14.01,2013-07-01 12:41:00,
2013-07-01 08:46:00,72.4,70.6,30.00,West,263,0.0,3.0,94,0.00,,,0.00,VWS V14.01,2013-07-01 12:46:00,
2013-07-01 08:51:00,72.5,70.7,30.00,West,263,0.0,3.0,94,0.00,,,0.00,VWS V14.01,2013-07-01 12:51:00,
2013-07-01 08:56:00,72.2,70.4,30.00,West,264,2.0,3.0,94,0.00,,,0.00,VWS V14.01,2013-07-01 12:56:00,
2013-07-01 09:01:00,72.2,70.4,30.00,West,263,0.0,3.0,94,0.00,,,0.00,VWS V14.01,2013-07-01 13:01:00,
2013-07-01 09:06:00,72.6,70.8,30.00,SE,132,0.0,3.0,94,0.00,,,0.00,VWS V14.01,2013-07-01 13:06:00,
2013-07-01 09:11:00,72.9,70.8,30.00,SE,135,0.0,3.0,93,0.00,,,0.00,VWS V14.01,2013-07-01 13:11:00,
2013-07-01 09:16:00,73.1,71.0,30.00,SE,135,0.0,3.0,93,0.00,,,0.00,VWS V14.01,2013-07-01 13:16:00,
2013-07-01 09:21:00,73.1,70.6,30.00,SE,138,0.0,3.0,92,0.00,,,0.00,VWS V14.01,2013-07-01 13:21:00,
2013-07-01 09:26:00,72.7,70.6,30.00,SE,138,0.0,3.0,93,0.00,,,0.00,VWS V14.01,2013-07-01 13:26:00,
2013-07-01 09:31:00,73.3,71.5,30.00,SW,226,2.0,3.0,94,0.00,,,0.00,VWS V14.01,2013-07-01 13:31:00,
2013-07-01 09:36:00,73.5,71.0,30.00,WSW,250,1.0,1.0,92,0.00,,,0.00,VWS V14.01,2013-07-01 13:36:00,
2013-07-01 09:41:00,73.5,70.7,30.00,SE,133,0.0,2.0,91,0.00,,,0.00,VWS V14.01,2013-07-01 13:41:00,
2013-07-01 09:46:00,73.4,70.9,30.00,SE,142,0.0,2.0,92,0.00,,,0.00,VWS V14.01,2013-07-01 13:46:00,
2013-07-01 09:51:00,73.5,70.7,30.00,SE,142,2.0,2.0,91,0.00,,,0.00,VWS V14.01,2013-07-01 13:51:00,
2013-07-01 09:56:00,73.8,70.7,30.00,SE,130,0.0,4.0,90,0.00,,,0.00,VWS V14.01,2013-07-01 13:56:00,
2013-07-01 10:01:00,73.8,71.3,30.00,SSW,192,1.0,4.0,92,0.00,,,0.00,VWS V14.01,2013-07-01 14:01:00,
2013-07-01 10:06:00,73.7,71.2,30.00,SE,136,0.0,3.0,92,0.00,,,0.00,VWS V14.01,2013-07-01 14:06:00,
2013-07-01 10:11:00,73.6,70.8,30.00,SE,131,0.0,3.0,91,0.00,,,0.00,VWS V14.01,2013-07-01 14:11:00,
2013-07-01 10:16:00,74.0,71.5,30.00,SE,127,1.0,4.0,92,0.00,,,0.00,VWS V14.01,2013-07-01 14:16:00,
2013-07-01 10:21:00,74.0,71.2,30.00,SE,136,1.0,4.0,91,0.00,,,0.00,VWS V14.01,2013-07-01 14:21:00,
2013-07-01 10:26:00,73.9,71.1,30.00,SE,137,2.0,4.0,91,0.00,,,0.00,VWS V14.01,2013-07-01 14:26:00,
2013-07-01 10:31:00,74.2,71.4,30.00,SE,136,0.0,4.0,91,0.00,,,0.00,VWS V14.01,2013-07-01 14:31:00,
2013-07-01 10:36:00,74.1,71.3,30.00,SE,145,0.0,0.0,91,0.00,,,0.00,VWS V14.01,2013-07-01 14:36:00,
2013-07-01 10:41:00,73.9,71.1,30.00,ESE,119,2.0,3.0,91,0.00,,,0.00,VWS V14.01,2013-07-01 14:41:00,
2013-07-01 10:46:00,74.0,71.5,30.01,South,178,1.0,3.0,92,0.00,,,0.00,VWS V14.01,2013-07-01 14:46:00,
2013-07-01 10:51:00,74.2,71.7,30.01,ESE,123,0.0,3.0,92,0.00,,,0.00,VWS V14.01,2013-07-01 14:51:00,
2013-07-01 10:56:00,74.6,71.5,30.01,SSW,195,3.0,4.0,90,0.00,,,0.00,VWS V14.01,2013-07-01 14:56:00,
2013-07-01 11:01:00,74.4,71.6,30.01,SE,133,0.0,6.0,91,0.00,,,0.00,VWS V14.01,2013-07-01 15:01:00,
2013-07-01 11:06:00,74.3,72.2,30.00,WNW,300,0.0,1.0,93,0.00,,,0.00,VWS V14.01,2013-07-01 15:06:00,
2013-07-01 11:11:00,74.3,71.5,30.01,WNW,283,0.0,1.0,91,0.00,,,0.00,VWS V14.01,2013-07-01 15:11:00,
2013-07-01 11:16:00,74.4,71.6,30.01,South,186,0.0,3.0,91,0.00,,,0.00,VWS V14.01,2013-07-01 15:16:00,
2013-07-01 11:21:00,74.5,71.7,30.01,SSE,163,0.0,3.0,91,0.00,,,0.00,VWS V14.01,2013-07-01 15:21:00,
2013-07-01 11:26:00,74.7,71.6,30.00,SSE,154,0.0,3.0,90,0.00,,,0.00,VWS V14.01,2013-07-01 15:26:00,
2013-07-01 11:31:00,75.0,72.5,30.00,West,259,5.0,5.0,92,0.00,,,0.00,VWS V14.01,2013-07-01 15:31:00,
2013-07-01 11:36:00,75.9,72.8,30.00,SSW,209,2.0,2.0,90,0.00,,,0.00,VWS V14.01,2013-07-01 15:36:00,
2013-07-01 11:41:00,76.0,71.9,30.00,South,170,0.0,2.0,87,0.00,,,0.00,VWS V14.01,2013-07-01 15:41:00,
2013-07-01 11:46:00,75.8,72.0,30.00,SSE,150,0.0,4.0,88,0.00,,,0.00,VWS V14.01,2013-07-01 15:46:00,
2013-07-01 11:51:00,75.4,71.6,30.00,SSE,150,0.0,4.0,88,0.00,,,0.00,VWS V14.01,2013-07-01 15:51:00,
2013-07-01 11:56:00,75.2,71.7,30.00,SE,128,0.0,4.0,89,0.00,,,0.00,VWS V14.01,2013-07-01 15:56:00,
2013-07-01 12:01:00,75.1,72.0,30.00,SE,128,0.0,4.0,90,0.00,,,0.00,VWS V14.01,2013-07-01 16:01:00,
2013-07-01 12:06:00,74.9,71.8,30.00,SE,128,0.0,1.0,90,0.00,,,0.00,VWS V14.01,2013-07-01 16:06:00,
2013-07-01 12:11:00,74.7,71.9,30.00,SE,128,0.0,2.0,91,0.00,,,0.00,VWS V14.01,2013-07-01 16:11:00,
2013-07-01 12:16:00,74.6,71.8,30.00,SE,128,0.0,2.0,91,0.00,,,0.00,VWS V14.01,2013-07-01 16:16:00,
2013-07-01 12:21:00,74.8,72.0,30.00,East,94,0.0,3.0,91,0.00,,,0.00,VWS V14.01,2013-07-01 16:21:00,
2013-07-01 12:26:00,74.9,72.1,30.00,South,185,2.0,3.0,91,0.00,,,0.00,VWS V14.01,2013-07-01 16:26:00,
2013-07-01 12:31:00,75.1,72.0,30.00,ESE,122,0.0,4.0,90,0.00,,,0.00,VWS V14.01,2013-07-01 16:31:00,
2013-07-01 12:35:00,75.5,72.4,30.00,ESE,120,0.0,4.0,90,0.00,,,0.00,VWS V14.01,2013-07-01 16:35:00,
2013-07-01 12:40:00,75.9,72.1,30.00,SW,219,0.0,4.0,88,0.00,,,0.00,VWS V14.01,2013-07-01 16:40:00,
2013-07-01 12:45:00,75.9,72.4,30.00,ESE,107,2.0,4.0,89,0.00,,,0.00,VWS V14.01,2013-07-01 16:45:00,
2013-07-01 12:50:00,75.6,72.5,30.00,SE,128,0.0,4.0,90,0.00,,,0.00,VWS V14.01,2013-07-01 16:50:00,
2013-07-01 12:55:00,75.2,72.1,30.00,SE,127,0.0,4.0,90,0.01,,,0.01,VWS V14.01,2013-07-01 16:55:00,
2013-07-01 13:01:00,75.3,72.5,29.99,SE,127,0.0,4.0,91,0.01,,,0.01,VWS V14.01,2013-07-01 17:01:00,
2013-07-01 13:06:00,75.9,73.1,29.99,SE,128,2.0,2.0,91,0.01,,,0.01,VWS V14.01,2013-07-01 17:06:00,
2013-07-01 13:11:00,76.4,72.9,29.99,SE,144,0.0,3.0,89,0.01,,,0.01,VWS V14.01,2013-07-01 17:11:00,
2013-07-01 13:16:00,76.7,72.9,29.99,ESE,114,3.0,7.0,88,0.01,,,0.01,VWS V14.01,2013-07-01 17:16:00,
2013-07-01 13:21:00,76.2,72.7,29.99,ESE,114,0.0,7.0,89,0.01,,,0.01,VWS V14.01,2013-07-01 17:21:00,
2013-07-01 13:26:00,75.8,72.7,29.99,SE,129,1.0,7.0,90,0.01,,,0.01,VWS V14.01,2013-07-01 17:26:00,
2013-07-01 13:31:00,75.3,72.2,29.99,SE,137,0.0,7.0,90,0.01,,,0.01,VWS V14.01,2013-07-01 17:31:00,
2013-07-01 13:36:00,75.2,72.7,29.99,South,182,1.0,3.0,92,0.02,,,0.02,VWS V14.01,2013-07-01 17:36:00,
2013-07-01 13:41:00,74.7,72.2,29.98,ESE,121,0.0,3.0,92,0.05,,,0.05,VWS V14.01,2013-07-01 17:41:00,
2013-07-01 13:46:00,74.4,72.6,29.99,WNW,295,0.0,3.0,94,0.06,,,0.06,VWS V14.01,2013-07-01 17:46:00,
2013-07-01 13:51:00,74.3,72.8,29.99,WNW,296,0.0,3.0,95,0.06,,,0.06,VWS V14.01,2013-07-01 17:51:00,
2013-07-01 13:56:00,74.4,72.9,29.99,SW,231,1.0,3.0,95,0.06,,,0.06,VWS V14.01,2013-07-01 17:56:00,
2013-07-01 14:01:00,74.8,73.3,29.99,NW,309,0.0,3.0,95,0.06,,,0.06,VWS V14.01,2013-07-01 18:01:00,
2013-07-01 14:06:00,74.8,73.3,29.99,NW,309,0.0,0.0,95,0.05,,,0.06,VWS V14.01,2013-07-01 18:06:00,
2013-07-01 14:11:00,74.8,73.3,29.99,WSW,252,0.0,2.0,95,0.05,,,0.06,VWS V14.01,2013-07-01 18:11:00,
2013-07-01 14:16:00,74.7,73.2,29.99,WSW,252,0.0,3.0,95,0.05,,,0.06,VWS V14.01,2013-07-01 18:16:00,
2013-07-01 14:21:00,74.5,73.0,29.99,SSW,210,0.0,3.0,95,0.06,,,0.07,VWS V14.01,2013-07-01 18:21:00,
2013-07-01 14:26:00,74.2,72.7,29.99,WSW,244,0.0,3.0,95,0.11,,,0.12,VWS V14.01,2013-07-01 18:26:00,
2013-07-01 14:31:00,74.2,73.0,29.99,SSW,194,0.0,3.0,96,0.13,,,0.14,VWS V14.01,2013-07-01 18:31:00,
2013-07-01 14:36:00,74.3,73.1,30.00,WNW,286,0.0,4.0,96,0.13,,,0.14,VWS V14.01,2013-07-01 18:36:00,
2013-07-01 14:41:00,74.4,73.2,29.99,WNW,286,0.0,4.0,96,0.13,,,0.14,VWS V14.01,2013-07-01 18:41:00,
2013-07-01 14:46:00,74.5,73.3,29.99,WNW,286,0.0,4.0,96,0.13,,,0.14,VWS V14.01,2013-07-01 18:46:00,
2013-07-01 14:51:00,74.7,73.2,29.99,WNW,287,0.0,4.0,95,0.13,,,0.14,VWS V14.01,2013-07-01 18:51:00,
2013-07-01 14:56:00,74.6,73.1,30.00,WNW,286,0.0,4.0,95,0.13,,,0.14,VWS V14.01,2013-07-01 18:56:00,
2013-07-01 15:01:00,74.6,73.4,29.99,WNW,286,0.0,4.0,96,0.13,,,0.14,VWS V14.01,2013-07-01 19:01:00,
2013-07-01 15:06:00,74.6,73.4,30.00,WNW,286,0.0,0.0,96,0.08,,,0.14,VWS V14.01,2013-07-01 19:06:00,
2013-07-01 15:11:00,74.7,73.2,30.00,West,267,0.0,4.0,95,0.08,,,0.14,VWS V14.01,2013-07-01 19:11:00,
2013-07-01 15:16:00,74.9,73.7,30.00,West,267,0.0,4.0,96,0.08,,,0.14,VWS V14.01,2013-07-01 19:16:00,
2013-07-01 15:21:00,75.1,73.9,30.00,West,267,0.0,4.0,96,0.08,,,0.14,VWS V14.01,2013-07-01 19:21:00,
2013-07-01 15:26:00,75.2,73.7,30.00,ESE,123,0.0,5.0,95,0.08,,,0.14,VWS V14.01,2013-07-01 19:26:00,
2013-07-01 15:31:00,75.2,73.7,29.99,West,270,0.0,5.0,95,0.08,,,0.14,VWS V14.01,2013-07-01 19:31:00,
2013-07-01 15:36:00,75.3,73.5,30.00,South,172,2.0,2.0,94,0.00,,,0.14,VWS V14.01,2013-07-01 19:36:00,
2013-07-01 15:41:00,75.1,73.3,30.00,WNW,288,0.0,2.0,94,0.00,,,0.14,VWS V14.01,2013-07-01 19:41:00,
2013-07-01 15:46:00,75.0,73.5,30.00,WSW,244,0.0,5.0,95,0.00,,,0.14,VWS V14.01,2013-07-01 19:46:00,
2013-07-01 15:51:00,74.9,73.1,30.00,NW,313,0.0,5.0,94,0.00,,,0.14,VWS V14.01,2013-07-01 19:51:00,
2013-07-01 15:56:00,74.6,72.8,30.00,NW,312,2.0,6.0,94,0.00,,,0.14,VWS V14.01,2013-07-01 19:56:00,
2013-07-01 16:01:00,74.8,73.0,30.00,WNW,300,0.0,8.0,94,0.01,,,0.15,VWS V14.01,2013-07-01 20:01:00,
2013-07-01 16:06:00,75.1,73.6,30.00,West,275,0.0,3.0,95,0.01,,,0.15,VWS V14.01,2013-07-01 20:06:00,
2013-07-01 16:11:00,75.9,74.1,30.00,West,275,2.0,4.0,94,0.01,,,0.15,VWS V14.01,2013-07-01 20:11:00,
2013-07-01 16:16:00,75.8,73.6,30.00,SSW,213,0.0,9.0,93,0.01,,,0.15,VWS V14.01,2013-07-01 20:16:00,
2013-07-01 16:21:00,75.7,73.8,30.00,NW,315,0.0,9.0,94,0.01,,,0.15,VWS V14.01,2013-07-01 20:21:00,
2013-07-01 16:26:00,75.4,73.2,30.00,NE,44,1.0,9.0,93,0.01,,,0.15,VWS V14.01,2013-07-01 20:26:00,
2013-07-01 16:31:00,75.4,73.2,30.00,South,182,0.0,9.0,93,0.01,,,0.15,VWS V14.01,2013-07-01 20:31:00,
2013-07-01 16:36:00,75.4,73.6,30.00,SE,126,1.0,1.0,94,0.01,,,0.15,VWS V14.01,2013-07-01 20:36:00,
2013-07-01 16:41:00,75.3,73.5,30.00,West,261,1.0,3.0,94,0.01,,,0.15,VWS V14.01,2013-07-01 20:41:00,
2013-07-01 16:46:00,75.2,73.4,30.00,West,271,4.0,5.0,94,0.01,,,0.15,VWS V14.01,2013-07-01 20:46:00,
2013-07-01 16:51:00,75.0,73.2,30.00,WSW,245,0.0,5.0,94,0.01,,,0.15,VWS V14.01,2013-07-01 20:51:00,
2013-07-01 16:56:00,74.8,73.0,30.01,West,268,1.0,8.0,94,0.01,,,0.15,VWS V14.01,2013-07-01 20:56:00,
2013-07-01 17:01:00,74.9,73.1,30.01,South,171,0.0,8.0,94,0.01,,,0.15,VWS V14.01,2013-07-01 21:01:00,
2013-07-01 17:06:00,75.0,73.2,30.01,South,171,1.0,1.0,94,0.00,,,0.15,VWS V14.01,2013-07-01 21:06:00,
2013-07-01 17:11:00,75.0,73.5,30.00,South,171,0.0,2.0,95,0.00,,,0.15,VWS V14.01,2013-07-01 21:11:00,
2013-07-01 17:16:00,74.8,73.3,30.00,South,169,0.0,2.0,95,0.00,,,0.15,VWS V14.01,2013-07-01 21:16:00,
2013-07-01 17:21:00,74.7,72.9,30.00,East,95,1.0,2.0,94,0.00,,,0.15,VWS V14.01,2013-07-01 21:21:00,
2013-07-01 17:26:00,74.4,72.9,30.00,WSW,242,0.0,3.0,95,0.01,,,0.16,VWS V14.01,2013-07-01 21:26:00,
2013-07-01 17:31:00,74.2,72.7,30.00,SW,234,0.0,3.0,95,0.01,,,0.16,VWS V14.01,2013-07-01 21:31:00,
2013-07-01 17:36:00,74.1,72.6,30.00,NNW,348,0.0,3.0,95,0.01,,,0.16,VWS V14.01,2013-07-01 21:36:00,
2013-07-01 17:41:00,74.2,72.7,30.00,WNW,292,0.0,6.0,95,0.01,,,0.16,VWS V14.01,2013-07-01 21:41:00,
2013-07-01 17:46:00,74.2,72.7,30.00,East,82,0.0,6.0,95,0.01,,,0.16,VWS V14.01,2013-07-01 21:46:00,
2013-07-01 17:51:00,74.3,72.8,30.00,East,82,0.0,6.0,95,0.01,,,0.16,VWS V14.01,2013-07-01 21:51:00,
2013-07-01 17:56:00,74.4,73.2,30.00,WSW,257,0.0,6.0,96,0.01,,,0.16,VWS V14.01,2013-07-01 21:56:00,
2013-07-01 18:01:00,74.4,72.9,30.00,SW,224,0.0,6.0,95,0.01,,,0.16,VWS V14.01,2013-07-01 22:01:00,
2013-07-01 18:06:00,74.5,73.0,30.00,SW,227,0.0,2.0,95,0.01,,,0.16,VWS V14.01,2013-07-01 22:06:00,
2013-07-01 18:11:00,74.4,72.9,30.00,ESE,121,0.0,3.0,95,0.01,,,0.16,VWS V14.01,2013-07-01 22:11:00,
2013-07-01 18:16:00,74.3,72.8,30.00,ESE,107,3.0,3.0,95,0.01,,,0.16,VWS V14.01,2013-07-01 22:16:00,
2013-07-01 18:21:00,74.3,72.5,30.00,SSE,158,1.0,4.0,94,0.01,,,0.16,VWS V14.01,2013-07-01 22:21:00,
2013-07-01 18:26:00,74.3,72.5,30.00,SSE,158,0.0,4.0,94,0.01,,,0.16,VWS V14.01,2013-07-01 22:26:00,
2013-07-01 18:31:00,74.2,72.4,30.01,SSE,159,2.0,4.0,94,0.01,,,0.16,VWS V14.01,2013-07-01 22:31:00,
2013-07-01 18:36:00,74.1,72.3,30.01,SSE,159,0.0,1.0,94,0.00,,,0.16,VWS V14.01,2013-07-01 22:36:00,
2013-07-01 18:41:00,73.8,72.3,30.01,SSE,159,0.0,1.0,95,0.00,,,0.16,VWS V14.01,2013-07-01 22:41:00,
2013-07-01 18:46:00,73.9,72.1,30.01,SSE,159,0.0,1.0,94,0.00,,,0.16,VWS V14.01,2013-07-01 22:46:00,
2013-07-01 18:51:00,73.9,72.4,30.01,NW,315,0.0,1.0,95,0.00,,,0.16,VWS V14.01,2013-07-01 22:51:00,
2013-07-01 18:56:00,73.9,72.7,30.01,NW,315,0.0,1.0,96,0.00,,,0.16,VWS V14.01,2013-07-01 22:56:00,
2013-07-01 19:01:00,73.8,72.6,30.01,NW,315,0.0,1.0,96,0.00,,,0.16,VWS V14.01,2013-07-01 23:01:00,
2013-07-01 19:06:00,73.7,72.5,30.02,NW,315,0.0,0.0,96,0.00,,,0.16,VWS V14.01,2013-07-01 23:06:00,
2013-07-01 19:11:00,73.6,72.4,30.02,NW,315,0.0,0.0,96,0.00,,,0.16,VWS V14.01,2013-07-01 23:11:00,
2013-07-01 19:16:00,73.5,72.3,30.03,NW,315,0.0,1.0,96,0.00,,,0.16,VWS V14.01,2013-07-01 23:16:00,
2013-07-01 19:21:00,73.3,71.8,30.03,SE,136,1.0,3.0,95,0.00,,,0.16,VWS V14.01,2013-07-01 23:21:00,
2013-07-01 19:26:00,73.4,71.6,30.03,SSW,195,1.0,3.0,94,0.00,,,0.16,VWS V14.01,2013-07-01 23:26:00,
2013-07-01 19:31:00,73.4,71.6,30.03,South,185,0.0,3.0,94,0.00,,,0.16,VWS V14.01,2013-07-01 23:31:00,
2013-07-01 19:36:00,73.3,71.5,30.03,SW,218,0.0,1.0,94,0.00,,,0.16,VWS V14.01,2013-07-01 23:36:00,
2013-07-01 19:41:00,73.2,71.4,30.03,SSW,198,0.0,4.0,94,0.00,,,0.16,VWS V14.01,2013-07-01 23:41:00,
2013-07-01 19:46:00,73.2,71.4,30.03,WSW,249,0.0,4.0,94,0.00,,,0.16,VWS V14.01,2013-07-01 23:46:00,
2013-07-01 19:51:00,73.0,71.5,30.03,WSW,249,0.0,4.0,95,0.00,,,0.16,VWS V14.01,2013-07-01 23:51:00,
2013-07-01 19:56:00,72.7,71.2,30.03,SE,134,0.0,4.0,95,0.00,,,0.16,VWS V14.01,2013-07-01 23:56:00,
2013-07-01 20:01:00,72.8,71.0,30.04,WSW,239,3.0,4.0,94,0.00,,,0.16,VWS V14.01,2013-07-02 00:01:00,
2013-07-01 20:06:00,72.8,71.0,30.04,SE,130,1.0,2.0,94,0.00,,,0.16,VWS V14.01,2013-07-02 00:06:00,
2013-07-01 20:11:00,72.7,70.9,30.04,North,350,0.0,4.0,94,0.00,,,0.16,VWS V14.01,2013-07-02 00:11:00,
2013-07-01 20:16:00,72.6,70.8,30.05,East,88,0.0,4.0,94,0.00,,,0.16,VWS V14.01,2013-07-02 00:16:00,
2013-07-01 20:21:00,72.6,70.8,30.04,WNW,294,0.0,4.0,94,0.00,,,0.16,VWS V14.01,2013-07-02 00:21:00,
2013-07-01 20:26:00,72.4,70.9,30.04,NNW,346,0.0,4.0,95,0.00,,,0.16,VWS V14.01,2013-07-02 00:26:00,
2013-07-01 20:31:00,72.2,70.7,30.05,NNW,346,1.0,4.0,95,0.00,,,0.16,VWS V14.01,2013-07-02 00:31:00,
2013-07-01 20:36:00,72.2,70.7,30.04,South,183,1.0,3.0,95,0.00,,,0.16,VWS V14.01,2013-07-02 00:36:00,
2013-07-01 20:41:00,72.2,70.7,30.05,North,9,0.0,3.0,95,0.00,,,0.16,VWS V14.01,2013-07-02 00:41:00,
2013-07-01 20:46:00,72.2,70.7,30.05,NNW,347,0.0,3.0,95,0.00,,,0.16,VWS V14.01,2013-07-02 00:46:00,
2013-07-01 20:51:00,72.0,70.5,30.05,NNW,347,0.0,3.0,95,0.00,,,0.16,VWS V14.01,2013-07-02 00:51:00,
2013-07-01 20:56:00,71.9,70.4,30.05,NNW,347,0.0,3.0,95,0.00,,,0.16,VWS V14.01,2013-07-02 00:56:00,
2013-07-01 21:01:00,72.0,70.5,30.06,North,349,0.0,3.0,95,0.00,,,0.16,VWS V14.01,2013-07-02 01:01:00,
2013-07-01 21:06:00,71.9,70.7,30.05,North,349,0.0,1.0,96,0.00,,,0.16,VWS V14.01,2013-07-02 01:06:00,
2013-07-01 21:11:00,71.8,70.6,30.05,ESE,109,1.0,4.0,96,0.00,,,0.16,VWS V14.01,2013-07-02 01:11:00,
2013-07-01 21:15:00,71.8,70.6,30.05,SE,132,0.0,4.0,96,0.00,,,0.16,VWS V14.01,2013-07-02 01:15:00,
2013-07-01 21:20:00,71.9,70.4,30.06,South,173,1.0,4.0,95,0.00,,,0.16,VWS V14.01,2013-07-02 01:20:00,
2013-07-01 21:25:00,72.0,70.5,30.06,South,177,0.0,4.0,95,0.00,,,0.16,VWS V14.01,2013-07-02 01:25:00,
2013-07-01 21:30:00,71.8,70.3,30.06,South,177,0.0,4.0,95,0.00,,,0.16,VWS V14.01,2013-07-02 01:30:00,
2013-07-01 21:35:00,71.7,70.5,30.07,WSW,237,1.0,3.0,96,0.00,,,0.16,VWS V14.01,2013-07-02 01:35:00,
2013-07-01 21:40:00,71.8,70.6,30.07,South,175,1.0,3.0,96,0.00,,,0.16,VWS V14.01,2013-07-02 01:40:00,
2013-07-01 21:45:00,71.9,70.4,30.07,NNW,333,0.0,3.0,95,0.00,,,0.16,VWS V14.01,2013-07-02 01:45:00,
2013-07-01 21:50:00,71.8,70.3,30.07,NNW,343,0.0,3.0,95,0.00,,,0.16,VWS V14.01,2013-07-02 01:50:00,
2013-07-01 21:55:00,71.7,70.2,30.07,ENE,65,0.0,3.0,95,0.00,,,0.16,VWS V14.01,2013-07-02 01:55:00,
2013-07-01 22:00:00,71.7,70.2,30.07,ENE,72,0.0,3.0,95,0.00,,,0.16,VWS V14.01,2013-07-02 02:00:00,
2013-07-01 22:05:00,71.7,70.2,30.07,SSW,200,1.0,3.0,95,0.00,,,0.16,VWS V14.01,2013-07-02 02:05:00,
2013-07-01 22:10:00,71.7,70.2,30.07,NE,55,0.0,3.0,95,0.00,,,0.16,VWS V14.01,2013-07-02 02:10:00,
2013-07-01 22:15:00,71.7,70.2,30.07,ESE,105,3.0,3.0,95,0.00,,,0.16,VWS V14.01,2013-07-02 02:15:00,
2013-07-01 22:20:00,71.7,70.2,30.08,WSW,251,1.0,3.0,95,0.00,,,0.16,VWS V14.01,2013-07-02 02:20:00,
2013-07-01 22:25:00,71.6,70.1,30.08,WSW,250,0.0,3.0,95,0.00,,,0.16,VWS V14.01,2013-07-02 02:25:00,
2013-07-01 22:30:00,71.5,70.0,30.08,WSW,250,0.0,3.0,95,0.00,,,0.16,VWS V14.01,2013-07-02 02:30:00,
2013-07-01 22:35:00,71.4,69.9,30.08,WSW,250,0.0,2.0,95,0.00,,,0.16,VWS V14.01,2013-07-02 02:35:00,
2013-07-01 22:40:00,71.5,70.0,30.07,WSW,252,2.0,2.0,95,0.00,,,0.16,VWS V14.01,2013-07-02 02:40:00,
2013-07-01 22:45:00,71.5,70.0,30.08,West,273,0.0,4.0,95,0.00,,,0.16,VWS V14.01,2013-07-02 02:45:00,
2013-07-01 22:46:00,71.5,70.0,30.08,West,273,0.0,4.0,95,0.00,,,0.16,VWS V14.01,2013-07-02 02:46:00,
2013-07-01 22:50:00,71.6,70.1,30.08,East,94,0.0,4.0,95,0.00,,,0.16,VWS V14.01,2013-07-02 02:50:00,
2013-07-01 22:55:00,71.6,70.1,30.07,WSW,253,2.0,4.0,95,0.00,,,0.16,VWS V14.01,2013-07-02 02:55:00,
2013-07-01 23:00:00,71.6,69.8,30.07,WNW,290,0.0,4.0,94,0.00,,,0.16,VWS V14.01,2013-07-02 03:00:00,
2013-07-01 23:05:00,71.7,69.9,30.07,WSW,244,0.0,0.0,94,0.00,,,0.16,VWS V14.01,2013-07-02 03:05:00,
2013-07-01 23:10:00,71.7,69.9,30.07,NNW,347,1.0,1.0,94,0.00,,,0.16,VWS V14.01,2013-07-02 03:10:00,
2013-07-01 23:15:00,71.7,69.9,30.08,NW,309,0.0,3.0,94,0.00,,,0.16,VWS V14.01,2013-07-02 03:15:00,
2013-07-01 23:20:00,71.8,70.0,30.08,WNW,284,4.0,4.0,94,0.00,,,0.16,VWS V14.01,2013-07-02 03:20:00,
2013-07-01 23:25:00,71.7,69.9,30.07,WNW,284,0.0,4.0,94,0.00,,,0.16,VWS V14.01,2013-07-02 03:25:00,
2013-07-01 23:30:00,71.7,69.9,30.07,South,176,0.0,4.0,94,0.00,,,0.16,VWS V14.01,2013-07-02 03:30:00,
2013-07-01 23:35:00,71.5,69.7,30.07,South,176,0.0,0.0,94,0.00,,,0.16,VWS V14.01,2013-07-02 03:35:00,
2013-07-01 23:40:00,71.3,69.8,30.08,South,176,0.0,0.0,95,0.00,,,0.16,VWS V14.01,2013-07-02 03:40:00,
2013-07-01 23:45:00,71.3,69.8,30.08,South,175,0.0,1.0,95,0.00,,,0.16,VWS V14.01,2013-07-02 03:45:00,
2013-07-01 23:50:00,71.4,69.9,30.08,South,176,0.0,1.0,95,0.00,,,0.16,VWS V14.01,2013-07-02 03:50:00,
2013-07-01 23:55:00,71.4,69.9,30.08,South,176,0.0,1.0,95,0.00,,,0.16,VWS V14.01,2013-07-02 03:55:00,